 day,  time,  air_temp(C),  RH(%),  ground_temp10cm(C),  ground_temp20cm(C),  ground_temp40cm(C),  precipitation(mm/h),  Solar_Radiation(MJ/m2h),  lack, 
 02/06/01, 01:00,  10.2,  99,  14.0,  13.9,  12.7,   0.0,  0.00, 
 02/06/01, 02:00,  10.6,  99,  13.7,  13.7,  12.7,   0.0,  0.00, 
 02/06/01, 03:00,  10.5,  99,  13.7,  13.8,  12.8,   0.0,  0.00, 
 02/06/01, 04:00,  10.4,  99,  13.5,  13.7,  12.8,   0.0,  0.00, 
 02/06/01, 05:00,  11.1,  99,  13.4,  13.6,  12.7,   0.0,  0.00, 
 02/06/01, 06:00,  11.7,  92,  13.3,  13.6,  12.8,   0.0,  0.17, 
 02/06/01, 07:00,  13.4,  84,  13.2,  13.6,  12.8,   0.0,  0.84, 
 02/06/01, 08:00,  14.0,  88,  13.4,  13.5,  12.7,   0.0,  1.64, 
 02/06/01, 09:00,  16.7,  76,  13.9,  13.5,  12.8,   0.0,  2.39, 
 02/06/01, 10:00,  16.3,  78,  14.6,  13.4,  12.8,   0.0,  2.86, 
 02/06/01, 11:00,  17.9,  56,  15.5,  13.5,  12.8,   0.0,  3.29, 
 02/06/01, 12:00,  20.2,  43,  16.6,  13.6,  12.8,   0.5,  3.51, 
 02/06/01, 13:00,  21.4,  45,  17.7,  13.7,  12.8,   0.0,  3.39, 
 02/06/01, 14:00,  19.6,  55,  18.2,  14.0,  12.9,   0.0,  2.42, 
 02/06/01, 15:00,  19.2,  55,  18.2,  14.2,  12.9,   0.0,  1.44, 
 02/06/01, 16:00,  20.6,  55,  18.2,  14.4,  12.9,   0.0,  1.82, 
 02/06/01, 17:00,  18.4,  61,  18.3,  14.6,  12.9,   0.0,  1.21, 
 02/06/01, 18:00,  16.7,  67,  18.2,  14.8,  12.9,   0.0,  0.55, 
 02/06/01, 19:00,  15.2,  74,  17.9,  15.0,  12.9,   0.0,  0.16, 
 02/06/01, 20:00,  14.6,  74,  17.5,  15.1,  12.9,   0.0,  0.00, 
 02/06/01, 21:00,  14.6,  78,  17.1,  15.2,  12.9,   0.0,  0.00, 
 02/06/01, 22:00,  13.4,  88,  16.7,  15.2,  13.1,   0.0,  0.00, 
 02/06/01, 23:00,  12.8,  99,  16.3,  15.2,  13.1,   0.0,  0.00, 
 02/06/02, 00:00,  12.6,  99,  16.1,  15.2,  13.0,   0.0,  0.00, 
 02/06/02, 01:00,  12.1,  99,  15.8,  15.2,  13.0,   0.0,  0.00, 
 02/06/02, 02:00,  11.8,  99,  15.6,  15.1,  13.1,   0.0,  0.00, 
 02/06/02, 03:00,  11.4,  91,  15.5,  15.0,  13.1,   0.0,  0.00, 
 02/06/02, 04:00,  10.5,  97,  15.2,  15.0,  13.1,   0.0,  0.00, 
 02/06/02, 05:00,   9.6,  89,  14.9,  14.9,  13.2,   0.0,  0.00, 
 02/06/02, 06:00,  10.1,  79,  14.6,  14.8,  13.2,   0.0,  0.13, 
 02/06/02, 07:00,  12.5,  69,  14.5,  14.8,  13.2,   0.0,  1.01, 
 02/06/02, 08:00,  12.7,  54,  14.6,  14.7,  13.3,   0.0,  1.81, 
 02/06/02, 09:00,  15.2,  52,  14.9,  14.6,  13.4,   0.0,  2.49, 
 02/06/02, 10:00,  15.0,  45,  15.5,  14.5,  13.4,   0.0,  3.09, 
 02/06/02, 11:00,  16.7,  45,  16.3,  14.5,  13.4,   0.0,  3.43, 
 02/06/02, 12:00,  16.3,  45,  17.2,  14.6,  13.4,   0.0,  2.54, 
 02/06/02, 13:00,  16.0,  43,  18.0,  14.7,  13.4,   0.0,  2.96, 
 02/06/02, 14:00,  18.2,  43,  18.3,  14.9,  13.4,   0.0,  3.25, 
 02/06/02, 15:00,  17.3,  46,  18.0,  15.0,  13.4,   0.0,  2.93, 
 02/06/02, 16:00,  16.9,  45,  18.0,  15.2,  13.4,   0.0,  2.36, 
 02/06/02, 17:00,  15.4,  46,  18.2,  15.3,  13.4,   0.0,  1.65, 
 02/06/02, 18:00,  13.8,  49,  18.0,  15.4,  13.4,   0.0,  0.92, 
 02/06/02, 19:00,  11.6,  67,  17.7,  15.5,  13.5,   0.0,  0.24, 
 02/06/02, 20:00,   8.8,  81,  17.2,  15.5,  13.5,   0.0,  0.00, 
 02/06/02, 21:00,   8.2,  85,  16.6,  15.6,  13.4,   0.5,  0.00, 
 02/06/02, 22:00,   7.7,  85,  16.2,  15.6,  13.5,   0.0,  0.00, 
 02/06/02, 23:00,   7.2,  87,  15.6,  15.5,  13.4,   0.0,  0.00, 
 02/06/03, 00:00,   7.8,  81,  15.2,  15.4,  13.5,   0.0,  0.00, 
 02/06/03, 01:00,   7.5,  83,  14.8,  15.3,  13.5,   0.0,  0.00, 
 02/06/03, 02:00,   7.4,  83,  14.4,  15.2,  13.5,   0.0,  0.00, 
 02/06/03, 03:00,   7.1,  78,  14.0,  15.1,  13.5,   0.0,  0.00, 
 02/06/03, 04:00,   6.9,  78,  13.7,  14.9,  13.5,   0.0,  0.00, 
 02/06/03, 05:00,   6.8,  72,  13.5,  14.8,  13.6,   0.0,  0.00, 
 02/06/03, 06:00,  10.2,  51,  13.2,  14.5,  13.6,   0.0,  0.29, 
 02/06/03, 07:00,  15.5,  43,  13.1,  14.5,  13.6,   0.0,  1.18, 
 02/06/03, 08:00,  15.6,  37,  13.4,  14.4,  13.6,   0.0,  1.55, 
 02/06/03, 09:00,  15.6,  60,  13.8,  14.2,  13.6,   0.0,  2.32, 
 02/06/03, 10:00,  18.6,  48,  14.5,  14.2,  13.6,   0.0,  3.06, 
 02/06/03, 11:00,  17.5,  44,  15.4,  14.1,  13.6,   6.0,  3.43, 
 02/06/03, 12:00,  19.8,  36,  16.7,  14.2,  13.6,   0.0,  3.59, 
 02/06/03, 13:00,  19.9,  41,  17.9,  14.3,  13.6,   0.0,  3.56, 
 02/06/03, 14:00,  20.5,  38,  18.4,  14.5,  13.6,   0.0,  3.26, 
 02/06/03, 15:00,  19.5,  42,  18.2,  14.8,  13.6,   0.0,  2.81, 
 02/06/03, 16:00,  19.1,  48,  18.0,  15.0,  13.5,   0.0,  2.30, 
 02/06/03, 17:00,  17.3,  55,  18.3,  15.1,  13.5,   0.0,  1.60, 
 02/06/03, 18:00,  15.5,  56,  18.3,  15.3,  13.5,   0.0,  0.87, 
 02/06/03, 19:00,  13.5,  61,  17.8,  15.4,  13.5,   0.0,  0.20, 
 02/06/03, 20:00,  10.7,  74,  17.5,  15.5,  13.7,   0.0,  0.00, 
 02/06/03, 21:00,  10.1,  75,  16.9,  15.6,  13.6,   0.0,  0.00, 
 02/06/03, 22:00,   9.7,  74,  16.5,  15.6,  13.6,   0.0,  0.00, 
 02/06/03, 23:00,   9.8,  72,  15.9,  15.6,  13.6,   0.0,  0.00, 
 02/06/04, 00:00,   9.4,  75,  15.6,  15.5,  13.6,   0.0,  0.00, 
 02/06/04, 01:00,   9.0,  83,  15.2,  15.4,  13.6,   0.0,  0.00, 
 02/06/04, 02:00,   9.0,  82,  14.8,  15.2,  13.7,   0.0,  0.00, 
 02/06/04, 03:00,   9.0,  81,  14.5,  15.2,  13.7,   0.0,  0.00, 
 02/06/04, 04:00,   9.2,  65,  14.3,  15.1,  13.7,   0.0,  0.00, 
 02/06/04, 05:00,   9.7,  58,  13.9,  15.0,  13.7,   0.0,  0.00, 
 02/06/04, 06:00,  11.3,  54,  13.7,  14.9,  13.7,   0.0,  0.16, 
 02/06/04, 07:00,  13.2,  61,  13.6,  14.7,  13.7,   0.0,  0.62, 
 02/06/04, 08:00,  16.6,  53,  13.8,  14.6,  13.7,   0.0,  0.89, 
 02/06/04, 09:00,  18.3,  46,  14.0,  14.5,  13.7,   0.0,  2.35, 
 02/06/04, 10:00,  18.9,  55,  14.8,  14.4,  13.8,   0.0,  1.84, 
 02/06/04, 11:00,  17.7,  59,  15.3,  14.4,  13.8,   0.0,  1.45, 
 02/06/04, 12:00,  19.2,  59,  15.7,  14.4,  13.7,   0.0,  1.93, 
 02/06/04, 13:00,  21.2,  54,  16.3,  14.5,  13.7,   0.0,  2.71, 
 02/06/04, 14:00,  18.8,  58,  16.8,  14.6,  13.8,   0.0,  1.77, 
 02/06/04, 15:00,  19.6,  57,  17.0,  14.7,  13.8,   0.0,  0.82, 
 02/06/04, 16:00,  19.8,  63,  17.1,  14.8,  13.8,   0.0,  1.12, 
 02/06/04, 17:00,  18.9,  60,  17.2,  15.0,  13.8,   0.0,  1.50, 
 02/06/04, 18:00,  17.0,  69,  17.3,  15.1,  13.8,   0.0,  0.75, 
 02/06/04, 19:00,  15.4,  70,  17.2,  15.2,  13.8,   0.0,  0.17, 
 02/06/04, 20:00,  12.8,  80,  16.8,  15.3,  13.7,   0.0,  0.00, 
 02/06/04, 21:00,  13.8,  76,  16.5,  15.3,  13.7,   0.0,  0.00, 
 02/06/04, 22:00,  11.4,  89,  16.1,  15.4,  13.7,   0.0,  0.00, 
 02/06/04, 23:00,  11.3,  89,  15.6,  15.4,  13.7,   0.0,  0.00, 
 02/06/05, 00:00,  11.5,  89,  15.3,  15.3,  13.8,   0.0,  0.00, 
 02/06/05, 01:00,  10.9,  92,  15.1,  15.3,  13.8,   0.0,  0.00, 
 02/06/05, 02:00,  14.0,  72,  14.8,  15.2,  13.8,   0.0,  0.00, 
 02/06/05, 03:00,  13.9,  70,  14.5,  15.1,  13.8,   0.0,  0.00, 
 02/06/05, 04:00,  13.8,  67,  14.4,  15.0,  13.8,   0.0,  0.00, 
 02/06/05, 05:00,  12.9,  70,  14.2,  14.9,  13.8,   0.0,  0.00, 
 02/06/05, 06:00,  12.6,  78,  14.0,  14.8,  13.8,   0.0,  0.24, 
 02/06/05, 07:00,  15.3,  74,  13.9,  14.7,  13.8,   0.0,  0.87, 
 02/06/05, 08:00,  15.9,  76,  14.2,  14.6,  13.8,   0.0,  1.60, 
 02/06/05, 09:00,  16.6,  74,  14.7,  14.6,  13.8,   0.0,  2.60, 
 02/06/05, 10:00,  17.7,  68,  15.4,  14.5,  13.8,   0.0,  2.44, 
 02/06/05, 11:00,  19.2,  51,  16.2,  14.5,  13.8,   0.0,  3.19, 
 02/06/05, 12:00,  19.8,  39,  17.2,  14.6,  13.8,   0.0,  3.37, 
 02/06/05, 13:00,  20.3,  29,  18.4,  14.8,  13.8,   0.0,  3.59, 
 02/06/05, 14:00,  21.4,  33,  18.7,  14.9,  13.8,   0.0,  3.35, 
 02/06/05, 15:00,  20.0,  43,  18.4,  15.2,  13.8,   0.0,  2.94, 
 02/06/05, 16:00,  19.7,  43,  18.4,  15.4,  13.8,   0.0,  2.31, 
 02/06/05, 17:00,  18.1,  60,  18.7,  15.5,  13.8,   0.0,  1.60, 
 02/06/05, 18:00,  15.7,  73,  18.6,  15.7,  13.8,   0.0,  0.85, 
 02/06/05, 19:00,  13.6,  82,  18.3,  15.8,  13.8,   0.0,  0.22, 
 02/06/05, 20:00,  11.3,  93,  17.8,  15.9,  13.8,   0.0,  0.00, 
 02/06/05, 21:00,  11.0,  93,  17.4,  15.9,  14.0,   0.0,  0.00, 
 02/06/05, 22:00,  10.2,  98,  16.9,  16.0,  13.9,   0.0,  0.00, 
 02/06/05, 23:00,  10.1,  95,  16.5,  15.9,  13.9,   0.0,  0.00, 
 02/06/06, 00:00,   9.4,  99,  16.1,  15.9,  13.9,   0.0,  0.00, 
 02/06/06, 01:00,  10.6,  93,  15.7,  15.7,  13.9,   0.0,  0.00, 
 02/06/06, 02:00,  12.2,  95,  15.4,  15.6,  14.0,   0.0,  0.00, 
 02/06/06, 03:00,  11.9,  93,  15.2,  15.6,  14.0,   0.0,  0.00, 
 02/06/06, 04:00,  12.2,  91,  14.9,  15.5,  14.0,   0.0,  0.00, 
 02/06/06, 05:00,  11.7,  92,  14.7,  15.4,  14.0,   0.0,  0.00, 
 02/06/06, 06:00,  12.8,  92,  14.6,  15.3,  14.0,   0.0,  0.32, 
 02/06/06, 07:00,  16.1,  84,  14.5,  15.2,  14.1,   0.0,  0.88, 
 02/06/06, 08:00,  14.8,  86,  14.8,  15.1,  14.1,   0.0,  1.45, 
 02/06/06, 09:00,  16.7,  72,  15.3,  15.0,  14.1,   0.0,  2.23, 
 02/06/06, 10:00,  19.7,  64,  15.8,  15.0,  14.1,   0.0,  3.12, 
 02/06/06, 11:00,  18.4,  54,  16.8,  15.0,  14.2,   0.0,  3.03, 
 02/06/06, 12:00,  21.5,  48,  17.8,  15.1,  14.1,   0.0,  3.55, 
 02/06/06, 13:00,  22.8,  46,  19.0,  15.2,  14.1,   0.0,  3.48, 
 02/06/06, 14:00,  22.8,  45,  19.6,  15.4,  14.2,   0.0,  3.00, 
 02/06/06, 15:00,  22.4,  49,  19.6,  15.7,  14.2,   0.0,  2.14, 
 02/06/06, 16:00,  20.6,  56,  19.6,  15.9,  14.1,   0.0,  1.52, 
 02/06/06, 17:00,  19.6,  64,  19.6,  16.1,  14.2,   0.0,  0.65, 
 02/06/06, 18:00,  17.6,  74,  19.4,  16.2,  14.2,   0.0,  0.31, 
 02/06/06, 19:00,  16.0,  86,  19.1,  16.4,  14.2,   0.0,  0.10, 
 02/06/06, 20:00,  15.4,  91,  18.7,  16.5,  14.2,   0.0,  0.00, 
 02/06/06, 21:00,  14.4,  94,  18.4,  16.5,  14.2,   0.0,  0.00, 
 02/06/06, 22:00,  13.8,  94,  18.0,  16.6,  14.2,   0.0,  0.00, 
 02/06/06, 23:00,  13.2,  95,  17.7,  16.6,  14.2,   0.0,  0.00, 
 02/06/07, 00:00,  12.2,  99,  17.5,  16.5,  14.3,   0.0,  0.00, 
 02/06/07, 01:00,  11.2,  99,  17.2,  16.5,  14.2,   0.0,  0.00, 
 02/06/07, 02:00,  10.3,  99,  16.8,  16.5,  14.3,   0.0,  0.00, 
 02/06/07, 03:00,  10.7,  99,  16.5,  16.4,  14.3,   0.0,  0.00, 
 02/06/07, 04:00,  11.0,  99,  16.2,  16.3,  14.3,   0.0,  0.00, 
 02/06/07, 05:00,  11.0,  99,  15.8,  16.2,  14.3,   0.0,  0.00, 
 02/06/07, 06:00,  12.1,  94,  15.6,  16.1,  14.4,   0.0,  0.26, 
 02/06/07, 07:00,  17.6,  63,  15.4,  15.9,  14.4,   0.0,  1.03, 
 02/06/07, 08:00,  18.4,  66,  15.6,  15.9,  14.4,   0.0,  1.77, 
 02/06/07, 09:00,  18.8,  70,  16.3,  15.8,  14.4,   0.0,  2.47, 
 02/06/07, 10:00,  21.6,  61,  17.0,  15.7,  14.5,   0.0,  3.00, 
 02/06/07, 11:00,  21.4,  53,  17.9,  15.8,  14.5,   0.0,  3.32, 
 02/06/07, 12:00,  22.9,  50,  18.8,  15.8,  14.5,   0.0,  3.43, 
 02/06/07, 13:00,  23.9,  47,  20.1,  16.0,  14.5,   0.0,  3.32, 
 02/06/07, 14:00,  24.2,  53,  20.5,  16.2,  14.5,   0.0,  2.83, 
 02/06/07, 15:00,  21.7,  60,  20.5,  16.4,  14.5,   0.0,  1.25, 
 02/06/07, 16:00,  23.2,  58,  20.4,  16.6,  14.5,   0.0,  1.66, 
 02/06/07, 17:00,  21.8,  61,  20.4,  16.8,  14.6,   0.0,  0.99, 
 02/06/07, 18:00,  20.0,  66,  20.3,  17.0,  14.6,   0.0,  0.73, 
 02/06/07, 19:00,  17.7,  75,  20.1,  17.1,  14.6,   0.0,  0.15, 
 02/06/07, 20:00,  17.3,  75,  19.7,  17.2,  14.6,   0.0,  0.00, 
 02/06/07, 21:00,  16.0,  80,  19.3,  17.3,  14.6,   0.0,  0.00, 
 02/06/07, 22:00,  14.7,  87,  18.8,  17.3,  14.6,   0.0,  0.00, 
 02/06/07, 23:00,  14.5,  90,  18.5,  17.3,  14.6,   0.0,  0.00, 
 02/06/08, 00:00,  13.1,  96,  18.1,  17.2,  14.6,   0.0,  0.00, 
 02/06/08, 01:00,  13.9,  95,  17.8,  17.2,  14.6,   0.0,  0.00, 
 02/06/08, 02:00,  12.6,  99,  17.5,  17.1,  14.7,   0.0,  0.00, 
 02/06/08, 03:00,  12.7,  99,  17.1,  17.0,  14.7,   0.0,  0.00, 
 02/06/08, 04:00,  12.9,  99,  16.8,  17.0,  14.7,   0.0,  0.00, 
 02/06/08, 05:00,  12.5,  99,  16.7,  16.8,  14.7,   0.0,  0.00, 
 02/06/08, 06:00,  14.4,  93,  16.5,  16.8,  14.8,   0.0,  0.24, 
 02/06/08, 07:00,  16.2,  87,  16.4,  16.7,  14.8,   0.0,  0.77, 
 02/06/08, 08:00,  17.2,  76,  16.6,  16.6,  14.8,   0.0,  1.39, 
 02/06/08, 09:00,  18.8,  76,  17.0,  16.5,  14.8,   0.0,  2.35, 
 02/06/08, 10:00,  20.3,  72,  17.6,  16.4,  14.8,   0.0,  2.84, 
 02/06/08, 11:00,  20.0,  69,  18.3,  16.4,  14.8,   0.0,  2.36, 
 02/06/08, 12:00,  22.4,  56,  18.8,  16.5,  14.8,   0.0,  1.93, 
 02/06/08, 13:00,  22.6,  53,  19.4,  16.6,  14.8,   0.0,  2.67, 
 02/06/08, 14:00,  22.9,  54,  19.7,  16.7,  14.9,   0.0,  2.76, 
 02/06/08, 15:00,  21.6,  58,  19.9,  16.9,  15.0,   0.0,  2.09, 
 02/06/08, 16:00,  19.8,  58,  20.0,  17.0,  15.0,   0.0,  1.24, 
 02/06/08, 17:00,  19.3,  57,  20.0,  17.1,  15.0,   0.0,  0.73, 
 02/06/08, 18:00,  18.5,  52,  19.8,  17.2,  15.0,   0.0,  0.78, 
 02/06/08, 19:00,  16.2,  77,  19.5,  17.3,  14.9,   0.0,  0.17, 
 02/06/08, 20:00,  15.4,  86,  19.1,  17.4,  15.0,   0.0,  0.00, 
 02/06/08, 21:00,  15.1,  90,  18.8,  17.4,  14.9,   0.0,  0.00, 
 02/06/08, 22:00,  14.0,  99,  18.5,  17.4,  14.9,   0.0,  0.00, 
 02/06/08, 23:00,  13.4,  99,  18.2,  17.4,  15.0,   0.0,  0.00, 
 02/06/09, 00:00,  13.1,  93,  17.9,  17.3,  15.0,   0.5,  0.00, 
 02/06/09, 01:00,  13.0,  89,  17.7,  17.3,  15.0,   0.0,  0.00, 
 02/06/09, 02:00,  11.6,  98,  17.4,  17.2,  15.0,   0.0,  0.00, 
 02/06/09, 03:00,  11.4,  97,  17.1,  17.1,  15.0,   0.0,  0.00, 
 02/06/09, 04:00,  10.7,  96,  16.8,  16.9,  15.1,   0.5,  0.00, 
 02/06/09, 05:00,   9.8,  95,  16.5,  16.8,  15.1,   0.0,  0.00, 
 02/06/09, 06:00,   9.1,  98,  16.3,  16.8,  15.1,   0.0,  0.13, 
 02/06/09, 07:00,  10.5,  86,  16.0,  16.7,  15.1,   0.0,  1.06, 
 02/06/09, 08:00,  11.8,  63,  16.1,  16.6,  15.1,   0.0,  1.97, 
 02/06/09, 09:00,  14.1,  53,  16.5,  16.5,  15.1,   0.0,  2.61, 
 02/06/09, 10:00,  15.6,  43,  17.1,  16.4,  15.1,   0.0,  3.17, 
 02/06/09, 11:00,  15.1,  49,  17.8,  16.4,  15.1,   0.0,  3.51, 
 02/06/09, 12:00,  15.6,  49,  18.8,  16.4,  15.1,   0.0,  3.68, 
 02/06/09, 13:00,  16.5,  45,  19.9,  16.5,  15.1,   0.0,  3.63, 
 02/06/09, 14:00,  17.5,  45,  20.1,  16.7,  15.1,   0.0,  3.40, 
 02/06/09, 15:00,  16.7,  50,  19.8,  16.9,  15.1,   0.0,  2.95, 
 02/06/09, 16:00,  16.7,  54,  19.6,  17.0,  15.1,   0.0,  2.42, 
 02/06/09, 17:00,  15.0,  49,  19.7,  17.1,  15.1,   0.0,  1.57, 
 02/06/09, 18:00,  13.3,  57,  19.5,  17.2,  15.1,   0.0,  0.80, 
 02/06/09, 19:00,  11.2,  67,  18.9,  17.3,  15.1,   0.0,  0.19, 
 02/06/09, 20:00,  10.9,  70,  18.4,  17.3,  15.1,   0.0,  0.00, 
 02/06/09, 21:00,   8.8,  82,  17.9,  17.3,  15.1,   0.0,  0.00, 
 02/06/09, 22:00,   8.5,  74,  17.3,  17.2,  15.2,   0.0,  0.00, 
 02/06/09, 23:00,   8.2,  64,  16.9,  17.2,  15.2,   0.0,  0.00, 
 02/06/10, 00:00,  11.7,  53,  16.5,  17.1,  15.2,   0.0,  0.00, 
 02/06/10, 01:00,  11.4,  44,  16.1,  17.0,  15.2,   0.0,  0.00, 
 02/06/10, 02:00,   9.9,  49,  15.7,  16.8,  15.2,   0.0,  0.00, 
 02/06/10, 03:00,   7.9,  53,  15.4,  16.7,  15.2,   0.0,  0.00, 
 02/06/10, 04:00,  10.0,  37,  15.0,  16.5,  15.2,   0.0,  0.00, 
 02/06/10, 05:00,   9.2,  41,  14.8,  16.4,  15.2,   0.0,  0.00, 
 02/06/10, 06:00,   9.8,  44,  14.5,  16.2,  15.3,   0.0,  0.19, 
 02/06/10, 07:00,  13.1,  50,  14.5,  16.1,  15.2,   0.0,  0.76, 
 02/06/10, 08:00,  19.2,  27,  14.5,  15.9,  15.2,   0.0,  1.61, 
 02/06/10, 09:00,  20.6,  25,  15.1,  15.8,  15.2,   0.5,  2.53, 
 02/06/10, 10:00,  21.0,  29,  15.9,  15.7,  15.2,   0.0,  3.15, 
 02/06/10, 11:00,  22.4,  25,  16.8,  15.7,  15.2,   0.0,  3.46, 
 02/06/10, 12:00,  23.4,  22,  18.0,  15.7,  15.2,   0.0,  3.63, 
 02/06/10, 13:00,  24.1,  21,  19.3,  15.9,  15.2,   0.0,  2.85, 
 02/06/10, 14:00,  23.6,  19,  19.7,  16.1,  15.2,   0.0,  3.21, 
 02/06/10, 15:00,  22.2,  22,  19.6,  16.3,  15.2,   0.0,  2.01, 
 02/06/10, 16:00,  21.7,  23,  19.5,  16.5,  15.3,   0.0,  1.48, 
 02/06/10, 17:00,  21.0,  27,  19.4,  16.6,  15.1,   0.0,  1.20, 
 02/06/10, 18:00,  18.6,  34,  19.1,  16.8,  15.1,   0.0,  0.55, 
 02/06/10, 19:00,  17.2,  40,  18.8,  16.9,  15.1,   0.0,  0.23, 
 02/06/10, 20:00,  16.0,  48,  18.4,  17.0,  15.1,   0.0,  0.00, 
 02/06/10, 21:00,  16.4,  51,  18.0,  17.0,  15.1,   0.0,  0.00, 
 02/06/10, 22:00,  15.2,  57,  17.7,  17.0,  15.1,   0.0,  0.00, 
 02/06/10, 23:00,  15.4,  58,  17.4,  17.0,  15.2,   0.0,  0.00, 
 02/06/11, 00:00,  16.0,  53,  17.2,  16.9,  15.3,   0.0,  0.00, 
 02/06/11, 01:00,  16.4,  53,  16.8,  16.8,  15.2,   0.0,  0.00, 
 02/06/11, 02:00,  16.5,  56,  16.7,  16.8,  15.2,   0.0,  0.00, 
 02/06/11, 03:00,  13.1,  85,  16.6,  16.7,  15.2,   0.0,  0.00, 
 02/06/11, 04:00,  11.4,  99,  16.5,  16.6,  15.2,   0.0,  0.00, 
 02/06/11, 05:00,  14.5,  99,  16.3,  16.5,  15.2,   0.0,  0.00, 
 02/06/11, 06:00,  15.6,  99,  16.2,  16.5,  15.2,   0.0,  0.01, 
 02/06/11, 07:00,  16.1,  99,  16.2,  16.4,  15.2,   0.0,  0.15, 
 02/06/11, 08:00,  16.6,  99,  16.2,  16.3,  15.2,   0.0,  0.30, 
 02/06/11, 09:00,  16.7,  99,  16.4,  16.3,  15.2,   1.0,  0.35, 
 02/06/11, 10:00,  17.3,  99,  16.5,  16.2,  15.3,   0.5,  0.46, 
 02/06/11, 11:00,  17.4,  99,  16.6,  16.2,  15.2,   0.0,  0.21, 
 02/06/11, 12:00,  18.4,  99,  16.7,  16.2,  15.2,   0.0,  0.40, 
 02/06/11, 13:00,  18.6,  99,  16.8,  16.2,  15.2,   0.0,  0.73, 
 02/06/11, 14:00,  18.5,  99,  17.1,  16.2,  15.2,   0.0,  0.67, 
 02/06/11, 15:00,  19.3,  99,  17.5,  16.2,  15.2,   0.5,  1.58, 
 02/06/11, 16:00,  18.0,  99,  17.7,  16.3,  15.2,   5.5,  0.23, 
 02/06/11, 17:00,  17.8,  99,  17.9,  16.4,  15.2,   4.5,  0.13, 
 02/06/11, 18:00,  17.8,  99,  17.7,  16.4,  15.2,   1.5,  0.08, 
 02/06/11, 19:00,  17.9,  99,  17.7,  16.5,  15.2,   1.0,  0.14, 
 02/06/11, 20:00,  18.1,  99,  17.7,  16.6,  15.2,   0.5,  0.00, 
 02/06/11, 21:00,  18.4,  99,  17.7,  16.6,  15.2,   1.0,  0.00, 
 02/06/11, 22:00,  18.2,  99,  17.7,  16.7,  15.2,  14.5,  0.00, 
 02/06/11, 23:00,  17.9,  99,  17.7,  16.8,  15.3,   3.0,  0.00, 
 02/06/12, 00:00,  17.4,  99,  17.7,  16.8,  15.4,   1.5,  0.00, 
 02/06/12, 01:00,  17.1,  99,  17.7,  16.9,  15.3,   0.5,  0.00, 
 02/06/12, 02:00,  16.7,  99,  17.6,  16.9,  15.3,   0.0,  0.00, 
 02/06/12, 03:00,  16.8,  99,  17.5,  16.9,  15.4,   0.0,  0.00, 
 02/06/12, 04:00,  16.5,  99,  17.4,  16.9,  15.4,   0.0,  0.00, 
 02/06/12, 05:00,  16.1,  99,  17.2,  16.8,  15.4,   0.0,  0.00, 
 02/06/12, 06:00,  16.3,  99,  17.2,  16.8,  15.4,   0.0,  0.14, 
 02/06/12, 07:00,  18.6,  99,  17.2,  16.8,  15.4,   0.0,  0.92, 
 02/06/12, 08:00,  17.7,  99,  17.4,  16.8,  15.4,   0.0,  0.96, 
 02/06/12, 09:00,  19.8,  86,  17.7,  16.8,  15.5,   0.0,  2.23, 
 02/06/12, 10:00,  20.9,  85,  18.4,  16.8,  15.5,   0.0,  2.83, 
 02/06/12, 11:00,  20.5,  77,  19.1,  16.8,  15.5,   0.0,  2.24, 
 02/06/12, 12:00,  20.0,  73,  19.6,  16.9,  15.5,   0.0,  1.28, 
 02/06/12, 13:00,  21.8,  64,  20.0,  17.1,  15.5,   0.0,  2.16, 
 02/06/12, 14:00,  21.9,  68,  20.2,  17.2,  15.5,   0.0,  2.10, 
 02/06/12, 15:00,  23.4,  57,  20.4,  17.4,  15.5,   0.5,  2.59, 
 02/06/12, 16:00,  22.4,  63,  20.5,  17.5,  15.6,   0.0,  1.90, 
 02/06/12, 17:00,  20.2,  78,  20.7,  17.6,  15.5,   0.0,  1.19, 
 02/06/12, 18:00,  19.7,  87,  20.7,  17.8,  15.6,   0.0,  0.60, 
 02/06/12, 19:00,  18.0,  88,  20.6,  17.9,  15.6,   0.0,  0.37, 
 02/06/12, 20:00,  16.7,  91,  20.3,  18.0,  15.6,   0.0,  0.00, 
 02/06/12, 21:00,  16.1,  93,  20.0,  18.1,  15.6,   0.0,  0.00, 
 02/06/12, 22:00,  15.4,  97,  19.6,  18.1,  15.6,   0.0,  0.00, 
 02/06/12, 23:00,  14.9,  98,  19.3,  18.1,  15.7,   0.0,  0.00, 
 02/06/13, 00:00,  14.3,  97,  18.9,  18.1,  15.7,   0.0,  0.00, 
 02/06/13, 01:00,  13.7,  99,  18.6,  18.0,  15.7,   0.0,  0.00, 
 02/06/13, 02:00,  13.1,  99,  18.3,  18.0,  15.7,   0.0,  0.00, 
 02/06/13, 03:00,  12.7,  99,  18.0,  17.9,  15.8,   0.0,  0.00, 
 02/06/13, 04:00,  12.6,  99,  17.7,  17.7,  15.8,   0.0,  0.00, 
 02/06/13, 05:00,  14.0,  89,  17.6,  17.7,  15.8,   0.0,  0.00, 
 02/06/13, 06:00,  13.5,  97,  17.3,  17.6,  15.8,   0.0,  0.14, 
 02/06/13, 07:00,  16.4,  82,  17.2,  17.5,  15.8,   0.0,  0.75, 
 02/06/13, 08:00,  17.1,  87,  17.2,  17.4,  15.9,   0.0,  1.47, 
 02/06/13, 09:00,  18.1,  79,  17.7,  17.4,  15.9,   0.0,  2.24, 
 02/06/13, 10:00,  18.9,  76,  18.2,  17.3,  15.9,   0.0,  2.70, 
 02/06/13, 11:00,  19.5,  73,  18.7,  17.3,  15.9,   0.0,  2.57, 
 02/06/13, 12:00,  21.7,  66,  19.5,  17.3,  15.9,   0.0,  3.40, 
 02/06/13, 13:00,  22.8,  60,  20.4,  17.4,  15.9,   0.0,  2.68, 
 02/06/13, 14:00,  21.4,  65,  20.8,  17.6,  15.9,   0.0,  2.05, 
 02/06/13, 15:00,  22.0,  68,  20.9,  17.7,  15.9,   0.0,  1.60, 
 02/06/13, 16:00,  21.4,  70,  20.9,  17.9,  15.9,   0.0,  1.40, 
 02/06/13, 17:00,  19.9,  77,  21.0,  18.0,  15.9,   0.0,  1.05, 
 02/06/13, 18:00,  17.6,  82,  20.9,  18.2,  15.9,   0.0,  0.36, 
 02/06/13, 19:00,  16.9,  82,  20.7,  18.3,  15.9,   0.0,  0.08, 
 02/06/13, 20:00,  15.8,  89,  20.3,  18.4,  16.0,   0.0,  0.00, 
 02/06/13, 21:00,  14.8,  91,  20.0,  18.4,  16.0,   0.0,  0.00, 
 02/06/13, 22:00,  15.7,  80,  19.7,  18.4,  16.0,   0.0,  0.00, 
 02/06/13, 23:00,  15.6,  76,  19.3,  18.4,  16.0,   0.0,  0.00, 
 02/06/14, 00:00,  12.4,  94,  18.9,  18.4,  16.0,   0.0,  0.00, 
 02/06/14, 01:00,  11.7,  98,  18.6,  18.3,  16.1,   0.0,  0.00, 
 02/06/14, 02:00,  11.8,  97,  18.2,  18.2,  16.1,   0.0,  0.00, 
 02/06/14, 03:00,  12.5,  91,  17.9,  18.1,  16.1,   0.0,  0.00, 
 02/06/14, 04:00,  12.5,  90,  17.6,  18.0,  16.1,   0.0,  0.00, 
 02/06/14, 05:00,  13.6,  85,  17.5,  17.9,  16.1,   0.0,  0.00, 
 02/06/14, 06:00,  13.5,  93,  17.2,  17.8,  16.1,   0.0,  0.00, 
 02/06/14, 07:00,  12.8,  99,  17.2,  17.7,  16.2,   0.0,  0.03, 
 02/06/14, 08:00,  14.2,  94,  17.0,  17.6,  16.2,   0.0,  0.67, 
 02/06/14, 09:00,  17.9,  78,  17.1,  17.5,  16.2,   0.0,  1.63, 
 02/06/14, 10:00,  19.1,  82,  17.6,  17.4,  16.2,   0.0,  2.26, 
 02/06/14, 11:00,  20.3,  75,  18.0,  17.4,  16.2,   0.0,  2.20, 
 02/06/14, 12:00,  20.3,  66,  18.6,  17.4,  16.2,   0.0,  2.00, 
 02/06/14, 13:00,  19.4,  73,  19.3,  17.4,  16.2,   0.0,  2.01, 
 02/06/14, 14:00,  20.7,  67,  19.7,  17.5,  16.2,   0.0,  2.30, 
 02/06/14, 15:00,  19.7,  65,  19.8,  17.6,  16.2,   0.0,  2.14, 
 02/06/14, 16:00,  18.4,  73,  20.0,  17.7,  16.2,   0.0,  1.28, 
 02/06/14, 17:00,  17.4,  80,  20.0,  17.8,  16.2,   0.0,  0.54, 
 02/06/14, 18:00,  17.0,  84,  19.8,  17.9,  16.2,   0.0,  0.25, 
 02/06/14, 19:00,  16.5,  90,  19.6,  18.0,  16.2,   0.0,  0.10, 
 02/06/14, 20:00,  14.7,  99,  19.4,  18.0,  16.2,   0.0,  0.00, 
 02/06/14, 21:00,  13.3,  99,  19.0,  18.1,  16.2,   0.5,  0.00, 
 02/06/14, 22:00,  12.9,  99,  18.7,  18.1,  16.2,   0.0,  0.00, 
 02/06/14, 23:00,  12.7,  99,  18.4,  18.0,  16.2,   4.5,  0.00, 
 02/06/15, 00:00,  12.1,  99,  18.0,  18.0,  16.2,   1.0,  0.00, 
 02/06/15, 01:00,  12.2,  99,  17.6,  17.8,  16.2,   2.0,  0.00, 
 02/06/15, 02:00,  12.4,  99,  17.5,  17.8,  16.2,   0.0,  0.00, 
 02/06/15, 03:00,  12.5,  99,  17.2,  17.7,  16.3,   0.5,  0.00, 
 02/06/15, 04:00,  12.2,  99,  17.0,  17.6,  16.3,   0.0,  0.00, 
 02/06/15, 05:00,  12.2,  99,  16.9,  17.6,  16.3,   0.0,  0.00, 
 02/06/15, 06:00,  13.0,  97,  16.8,  17.5,  16.3,   0.0,  0.19, 
 02/06/15, 07:00,  15.0,  91,  16.7,  17.4,  16.3,   0.0,  0.89, 
 02/06/15, 08:00,  14.4,  99,  16.8,  17.3,  16.3,   0.0,  1.48, 
 02/06/15, 09:00,  15.1,  99,  17.1,  17.2,  16.3,   0.0,  1.25, 
 02/06/15, 10:00,  16.5,  97,  17.3,  17.0,  16.3,   0.5,  1.14, 
 02/06/15, 11:00,  17.5,  85,  17.7,  17.1,  16.3,   0.0,  1.58, 
 02/06/15, 12:00,  19.1,  84,  18.0,  17.1,  16.3,   0.0,  2.93, 
 02/06/15, 13:00,  19.2,  84,  18.9,  17.2,  16.3,   0.0,  2.46, 
 02/06/15, 14:00,  18.9,  85,  19.5,  17.2,  16.3,   0.0,  2.03, 
 02/06/15, 15:00,  18.2,  84,  19.7,  17.3,  16.3,   0.0,  1.68, 
 02/06/15, 16:00,  17.3,  88,  19.8,  17.5,  16.3,   0.0,  1.13, 
 02/06/15, 17:00,  17.0,  90,  19.9,  17.6,  16.3,   0.0,  1.39, 
 02/06/15, 18:00,  14.6,  99,  19.9,  17.7,  16.2,   0.0,  0.23, 
 02/06/15, 19:00,  13.7,  99,  19.6,  17.8,  16.2,   0.0,  0.02, 
 02/06/15, 20:00,  13.4,  99,  19.3,  17.9,  16.2,   0.0,  0.00, 
 02/06/15, 21:00,  13.5,  99,  18.9,  17.9,  16.2,   0.0,  0.00, 
 02/06/15, 22:00,  13.2,  99,  18.7,  17.9,  16.2,   0.0,  0.00, 
 02/06/15, 23:00,  13.2,  94,  18.2,  17.9,  16.3,   0.0,  0.00, 
 02/06/16, 00:00,  12.5,  97,  17.9,  17.9,  16.3,   0.0,  0.00, 
 02/06/16, 01:00,  12.5,  92,  17.7,  17.7,  16.3,   0.0,  0.00, 